This is the latest recevied weather packets stored in our database for station/object N6GPM. If no packets are shown the sender has not sent any weather packets the latest 10 day(s).
| Time | Temp. | Humidity | Pressure | Rain* | Wind** | Luminosity | Snow |
|---|---|---|---|---|---|---|---|
| 1778021919 | 17.22° C | 55% | 1016.8 hPa | 0 mm | - | 653 W/m² | - |
| 1778021617 | 17.22° C | 54% | 1016.9 hPa | 0 mm | - | 498 W/m² | - |
| 1778021311 | 17.22° C | 55% | 1016.9 hPa | 0 mm | - | 321 W/m² | - |
| 1778021010 | 17.22° C | 55% | 1017 hPa | 0 mm | - | 293 W/m² | - |
| 1778020706 | 17.78° C | 52% | 1017 hPa | 0 mm | - | 342 W/m² | - |
| 1778020404 | 17.78° C | 52% | 1016.9 hPa | 0 mm | - | 791 W/m² | - |
| 1778020099 | 18.33° C | 53% | 1017 hPa | 0 mm | - | 259 W/m² | - |
| 1778019795 | 17.78° C | 53% | 1017 hPa | 0 mm | - | 824 W/m² | - |
| 1778019493 | 17.22° C | 54% | 1016.9 hPa | 0 mm | - | 778 W/m² | - |
| 1778019189 | 17.78° C | 55% | 1017.4 hPa | 0 mm | - | 319 W/m² | - |
| 1778018886 | 17.78° C | 53% | 1017.3 hPa | 0 mm | - | 254 W/m² | - |
| 1778018583 | 17.78° C | 54% | 1016.9 hPa | 0 mm | - | 430 W/m² | - |
| 1778018282 | 18.33° C | 53% | 1017.2 hPa | 0 mm | - | 791 W/m² | - |
| 1778017979 | 18.89° C | 49% | 1017 hPa | 0 mm | - | 770 W/m² | - |
| 1778017677 | 18.89° C | 47% | 1016.8 hPa | 0 mm | - | 750 W/m² | - |
| 1778017374 | 18.33° C | 48% | 1017.5 hPa | 0 mm | - | 793 W/m² | - |
| 1778017071 | 17.78° C | 49% | 1017.3 hPa | 0 mm | - | 831 W/m² | - |
| 1778016768 | 17.78° C | 49% | 1017.5 hPa | 0 mm | - | 483 W/m² | - |
| 1778016464 | 17.78° C | 51% | 1017.4 hPa | 0 mm | - | 318 W/m² | - |
| 1778016162 | 17.22° C | 52% | 1017.8 hPa | 0 mm | - | 332 W/m² | - |
| 1778015858 | 16.67° C | 52% | 1017.5 hPa | 0 mm | - | 297 W/m² | - |
| 1778015556 | 16.67° C | 53% | 1017.7 hPa | 0 mm | - | 402 W/m² | - |
| 1778015252 | 16.67° C | 54% | 1017.8 hPa | 0 mm | - | 246 W/m² | - |
| 1778014949 | 16.67° C | 53% | 1017.7 hPa | 0 mm | - | 238 W/m² | - |
| 1778014646 | 16.11° C | 55% | 1017.6 hPa | 0 mm | - | 237 W/m² | - |
* Rain latest hour (hover to see other rain measurements)
** Current wind speed in m/s (hover to see current wind gust speed)